Humidity-temperature Sensor

Selected Measurement Type: Relative Humidity

 
Relative Humidity [%]     6 entries per hour
Showing data from 4/8/2021 (00:00:00 Z) to 4/7/2021 (00:01:00 Z)
Previous Next [ Day | 3-Days | 7-Days ]
First Last
Prev [ Day | 3-Days | 7-Days ] Next
First Last

Start Time:     :
End Time:     :     
Time (in GMT) :00 :50 :40 :30 :20 :10
Previous Next [ Day | 3-Days | 7-Days ]
First Last
Prev [ Day | 3-Days | 7-Days ] Next
First Last


123 => good data
MM => data is determined as missing
-- => data not received/configured
Back to Top Back to Top
4/8/2021 00:00 to 23:10 76.64 76.07 76.27 76.58 76.48 76.87
4/7/2021 23:00 to 22:10 76.83 76.78 77.05 77.07 76.25 76.83
4/7/2021 22:00 to 21:10 76.81 77.71 77.96 78.02 78.37 78.18
4/7/2021 21:00 to 20:10 79.19 79.54 79.95 80.89 81.26 81.41
4/7/2021 20:00 to 19:10 82.00 82.11 82.05 82.76 83.48 83.71
4/7/2021 19:00 to 18:10 83.20 83.28 83.65 84.10 84.78 85.11
4/7/2021 18:00 to 17:10 85.48 85.64 86.01 85.87 86.20 85.83
4/7/2021 17:00 to 16:10 85.87 85.74 86.13 86.50 86.59 86.63
4/7/2021 16:00 to 15:10 87.04 87.51 87.66 87.72 87.82 87.88
4/7/2021 15:00 to 14:10 88.00 88.00 88.29 88.64 88.91 89.57
4/7/2021 14:00 to 13:10 89.53 89.44 89.55 89.42 89.61 89.77
4/7/2021 13:00 to 12:10 89.77 90.02 89.61 89.48 89.26 89.18
4/7/2021 12:00 to 11:10 89.42 89.24 89.13 88.95 88.99 88.87
4/7/2021 11:00 to 10:10 88.68 88.54 88.58 88.52 88.54 88.56
4/7/2021 10:00 to 9:10 88.70 88.68 88.66 88.03 87.10 87.29
4/7/2021 09:00 to 8:10 88.03 88.64 89.50 90.57 91.05 91.87
4/7/2021 08:00 to 7:10 92.44 93.29 93.29 93.16 93.31 93.51
4/7/2021 07:00 to 6:10 93.51 92.94 91.99 90.78 89.87 89.98
4/7/2021 06:00 to 5:10 90.00 90.04 89.65 89.90 89.79 89.55
4/7/2021 05:00 to 4:10 89.46 89.57 89.63 89.67 89.75 89.94
4/7/2021 04:00 to 3:10 90.22 90.90 90.94 90.72 90.72 90.98
4/7/2021 03:00 to 2:10 91.09 91.15 91.23 90.88 90.51 90.49
4/7/2021 02:00 to 1:10 90.45 90.88 91.05 91.09 90.80 90.53
4/7/2021 01:00 to 0:10 89.81 89.79 89.67 89.36 89.26 88.93